User: anonymous
Location: Kitchener
(43.2612°N, 80.5078°W)
Time: 15:35:32
(UTC+02:00)
Language:

Iridium 57 - Orbit

View from above orbital plane
View from above orbital plane
View from above satellite
View from above satellite

Ground track
Ground track

The orbit data is extracted from the following two-line orbital elements,

1 25273U 98019B   14107.40142001  .00000537  00000-0  18474-3 0  7148
2 25273 086.3989 050.8135 0002205 101.0581 259.0863 14.34218315840266
Epoch (UTC): 17 April 2014 09:38:02
Eccentricity: 0.0002205
inclination: 86.3989°
perigee height: 776 km
apogee height: 779 km
right ascension of ascending node: 50.8135°
argument of perigee: 101.0581°
revolutions per day: 14.34218315
mean anomaly at epoch: 259.0863°
orbit number at epoch: 84026

The dashed part of the orbit path shows where the satellite is in the earth's shadow,  

DLR